Location: Bosdarros
(43.2167°N, 0.3667°W)
Time: 15:45:52
(UTC+00:00)

Cosmos 2151 - Pass Details

Date: 22 April 2021
Orbit: 581 x 600 km, 82.5° (Epoch: 12 May)

Event Time Altitude Azimuth Distance (km) Brightness Sun altitude
Rises 19:35:35 0° 5° (N) 2,858 6.8 -8.1°
Reaches altitude 10° 19:38:18 10° 22° (NNE) 1,949 5.7 -8.5°
Maximum altitude 19:41:32 20° 71° (ENE) 1,383 4.5 -9.1°
Enters shadow 19:44:09 13° 114° (ESE) 1,764 4.7 -9.5°
